| time (UTC) | temp F | wind direction | speed MPH | gust MPH | rain 1hr in | rain 24hr in | rain mn in | humidity % | barometer mb |
| 20260504225511 | 66 | 252 | 8.0 | 23.0 | 0.00 | 0.00 | 0.00 | 40 | 1007.3 |
| 20260504225012 | 66 | 233 | 11.0 | 22.0 | 0.00 | 0.00 | 0.00 | 39 | 1007.3 |
| 20260504224531 | 67 | 249 | 9.0 | 22.0 | 0.00 | 0.00 | 0.00 | 40 | 1007.2 |
| 20260504224012 | 67 | 257 | 9.0 | 23.0 | 0.00 | 0.00 | 0.00 | 39 | 1007.3 |
| 20260504223511 | 67 | 279 | 10.0 | 24.0 | 0.00 | 0.00 | 0.00 | 38 | 1007.3 |
| 20260504223049 | 67 | 263 | 9.0 | 24.0 | 0.00 | 0.00 | 0.00 | 39 | 1007.2 |
| 20260504222513 | 67 | 259 | 7.0 | 16.0 | 0.00 | 0.00 | 0.00 | 39 | 1007.2 |
| 20260504222015 | 67 | 250 | 8.0 | 18.0 | 0.00 | 0.00 | 0.00 | 40 | 1007.2 |
| 20260504221528 | 67 | 258 | 10.0 | 18.0 | 0.00 | 0.00 | 0.00 | 39 | 1007.2 |
| 20260504221012 | 67 | 247 | 7.0 | 19.0 | 0.00 | 0.00 | 0.00 | 40 | 1007.1 |
| 20260504220513 | 68 | 267 | 10.0 | 19.0 | 0.00 | 0.00 | 0.00 | 39 | 1007.2 |
| 20260504220031 | 68 | 257 | 10.0 | 20.0 | 0.00 | 0.00 | 0.00 | 38 | 1007.1 |
| 20260504215511 | 67 | 265 | 9.0 | 20.0 | 0.00 | 0.00 | 0.00 | 39 | 1007.1 |
| 20260504215012 | 67 | 294 | 10.0 | 24.0 | 0.00 | 0.00 | 0.00 | 38 | 1007.2 |
| 20260504214531 | 67 | 281 | 10.0 | 24.0 | 0.00 | 0.00 | 0.00 | 39 | 1007.2 |
| 20260504214011 | 67 | 248 | 6.0 | 21.0 | 0.00 | 0.00 | 0.00 | 38 | 1007.1 |
| 20260504213516 | 68 | 261 | 9.0 | 27.0 | 0.00 | 0.00 | 0.00 | 37 | 1007.1 |
| 20260504213042 | 69 | 233 | 14.0 | 27.0 | 0.00 | 0.00 | 0.00 | 36 | 1007.2 |
| 20260504212513 | 69 | 251 | 10.0 | 27.0 | 0.00 | 0.00 | 0.00 | 38 | 1007.1 |
| 20260504212015 | 68 | 248 | 12.0 | 27.0 | 0.00 | 0.00 | 0.00 | 37 | 1007.1 |
| 20260504211533 | 68 | 262 | 10.0 | 23.0 | 0.00 | 0.00 | 0.00 | 38 | 1007.1 |
| 20260504211012 | 68 | 280 | 10.0 | 27.0 | 0.00 | 0.00 | 0.00 | 37 | 1007.1 |
| 20260504210512 | 68 | 288 | 13.0 | 27.0 | 0.00 | 0.00 | 0.00 | 37 | 1007.0 |
| 20260504210033 | 68 | 279 | 10.0 | 21.0 | 0.00 | 0.00 | 0.00 | 37 | 1007.1 |
| 20260504205513 | 68 | 241 | 10.0 | 29.0 | 0.00 | 0.00 | 0.00 | 38 | 1007.1 |
| 20260504205011 | 68 | 286 | 14.0 | 29.0 | 0.00 | 0.00 | 0.00 | 38 | 1007.0 |
| 20260504204541 | 69 | 269 | 12.0 | 29.0 | 0.00 | 0.00 | 0.00 | 38 | 1006.8 |
| 20260504204014 | 68 | 284 | 11.0 | 26.0 | 0.00 | 0.00 | 0.00 | 39 | 1006.9 |
| 20260504203512 | 68 | 228 | 10.0 | 21.0 | 0.00 | 0.00 | 0.00 | 38 | 1006.9 |
| 20260504203033 | 67 | 227 | 10.0 | 23.0 | 0.00 | 0.00 | 0.00 | 38 | 1006.9 |
| 20260504202511 | 68 | 259 | 11.0 | 26.0 | 0.00 | 0.00 | 0.00 | 38 | 1006.9 |
| 20260504202012 | 68 | 278 | 12.0 | 26.0 | 0.00 | 0.00 | 0.00 | 38 | 1006.8 |
| 20260504201531 | 68 | 261 | 13.0 | 31.0 | 0.00 | 0.00 | 0.00 | 38 | 1007.0 |
| 20260504201016 | 68 | 277 | 10.0 | 31.0 | 0.00 | 0.00 | 0.00 | 37 | 1006.9 |
| 20260504200513 | 69 | 264 | 12.0 | 26.0 | 0.00 | 0.00 | 0.00 | 37 | 1006.9 |
| 20260504200031 | 69 | 275 | 13.0 | 29.0 | 0.00 | 0.00 | 0.00 | 36 | 1007.0 |
| 20260504195512 | 69 | 318 | 13.0 | 30.0 | 0.00 | 0.00 | 0.00 | 37 | 1006.9 |
| 20260504195016 | 69 | 360 | 16.0 | 30.0 | 0.00 | 0.00 | 0.00 | 37 | 1006.9 |
| 20260504194529 | 68 | 271 | 18.0 | 30.0 | 0.00 | 0.00 | 0.00 | 38 | 1007.0 |
| 20260504194011 | 68 | 275 | 13.0 | 29.0 | 0.00 | 0.00 | 0.00 | 39 | 1007.0 |
| 20260504193512 | 68 | 257 | 14.0 | 31.0 | 0.00 | 0.00 | 0.00 | 39 | 1006.9 |
| 20260504193028 | 68 | 248 | 13.0 | 31.0 | 0.00 | 0.00 | 0.00 | 39 | 1007.0 |
| 20260504192511 | 68 | 241 | 16.0 | 31.0 | 0.00 | 0.00 | 0.00 | 38 | 1007.0 |
| 20260504192013 | 67 | 261 | 11.0 | 24.0 | 0.00 | 0.00 | 0.00 | 39 | 1007.0 |
| 20260504191528 | 67 | 249 | 9.0 | 31.0 | 0.00 | 0.00 | 0.00 | 40 | 1007.1 |
| 20260504191010 | 66 | 269 | 11.0 | 31.0 | 0.00 | 0.00 | 0.00 | 41 | 1007.0 |
| 20260504190514 | 65 | 297 | 10.0 | 26.0 | 0.00 | 0.00 | 0.00 | 42 | 1007.2 |
| 20260504190030 | 64 | 290 | 11.0 | 28.0 | 0.00 | 0.00 | 0.00 | 42 | 1007.3 |
| 20260504185512 | 64 | 284 | 10.0 | 30.0 | 0.00 | 0.00 | 0.00 | 43 | 1007.3 |
| 20260504185012 | 64 | 299 | 15.0 | 30.0 | 0.00 | 0.00 | 0.00 | 43 | 1007.4 |
| 20260504184531 | 64 | 311 | 16.0 | 31.0 | 0.00 | 0.00 | 0.00 | 42 | 1007.3 |
| 20260504184011 | 64 | 264 | 13.0 | 31.0 | 0.00 | 0.00 | 0.00 | 43 | 1007.5 |
| 20260504183513 | 64 | 278 | 12.0 | 26.0 | 0.00 | 0.00 | 0.00 | 42 | 1007.5 |
| 20260504183030 | 64 | 263 | 14.0 | 26.0 | 0.00 | 0.00 | 0.00 | 41 | 1007.4 |
| 20260504182514 | 64 | 290 | 15.0 | 35.0 | 0.00 | 0.00 | 0.00 | 41 | 1007.3 |
| 20260504182011 | 64 | 270 | 14.0 | 35.0 | 0.00 | 0.00 | 0.00 | 42 | 1007.2 |
| 20260504181534 | 64 | 283 | 8.0 | 22.0 | 0.00 | 0.00 | 0.00 | 42 | 1007.3 |
| 20260504181013 | 64 | 277 | 9.0 | 24.0 | 0.00 | 0.00 | 0.00 | 42 | 1007.3 |
| 20260504180513 | 64 | 247 | 12.0 | 24.0 | 0.00 | 0.00 | 0.00 | 40 | 1007.1 |
| 20260504180030 | 64 | 247 | 12.0 | 21.0 | 0.00 | 0.00 | 0.00 | 40 | 1007.2 |
| 20260504175511 | 64 | 270 | 6.0 | 26.0 | 0.00 | 0.00 | 0.00 | 40 | 1007.3 |
| 20260504175012 | 64 | 281 | 10.0 | 26.0 | 0.00 | 0.00 | 0.00 | 41 | 1007.3 |
| 20260504174532 | 64 | 236 | 14.0 | 26.0 | 0.00 | 0.00 | 0.00 | 41 | 1007.3 |
| 20260504174013 | 63 | 221 | 13.0 | 27.0 | 0.00 | 0.00 | 0.00 | 40 | 1007.3 |
| 20260504173512 | 64 | 246 | 16.0 | 27.0 | 0.00 | 0.00 | 0.00 | 40 | 1007.4 |
| 20260504173029 | 64 | 217 | 9.0 | 26.0 | 0.00 | 0.00 | 0.00 | 41 | 1007.3 |
| 20260504172512 | 64 | 269 | 12.0 | 26.0 | 0.00 | 0.00 | 0.00 | 39 | 1007.5 |
| 20260504172013 | 65 | 266 | 13.0 | 25.0 | 0.00 | 0.00 | 0.00 | 39 | 1007.4 |
| 20260504171529 | 65 | 340 | 13.0 | 26.0 | 0.00 | 0.00 | 0.00 | 39 | 1007.2 |
| 20260504171015 | 65 | 248 | 16.0 | 32.0 | 0.00 | 0.00 | 0.00 | 38 | 1007.3 |
| 20260504170511 | 65 | 254 | 15.0 | 34.0 | 0.00 | 0.00 | 0.00 | 38 | 1007.4 |
| 20260504151015 | 62 | 254 | 13.0 | 27.0 | 0.00 | 0.00 | 0.00 | 48 | 1008.0 |
| 20260504150512 | 61 | 241 | 13.0 | 27.0 | 0.00 | 0.00 | 0.00 | 46 | 1008.1 |
| 20260504141012 | 57 | 265 | 12.0 | 23.0 | 0.00 | 0.00 | 0.00 | 53 | 1009.0 |
| 20260504140510 | 57 | 273 | 14.0 | 23.0 | 0.00 | 0.00 | 0.00 | 54 | 1009.0 |
| 20260504130513 | 54 | 242 | 7.0 | 18.0 | 0.00 | 0.00 | 0.00 | 60 | 1009.5 |
| 20260504110512 | 43 | 254 | 10.0 | 18.0 | 0.00 | 0.00 | 0.00 | 72 | 1010.1 |
| 20260504100511 | 40 | 236 | 8.0 | 14.0 | 0.00 | 0.00 | 0.00 | 73 | 1010.0 |
| 20260504081529 | 41 | 265 | 11.0 | 19.0 | 0.00 | 0.00 | 0.00 | 66 | 1009.9 |
| 20260504081012 | 41 | 265 | 9.0 | 17.0 | 0.00 | 0.00 | 0.00 | 66 | 1009.9 |
| 20260504080511 | 41 | 259 | 10.0 | 20.0 | 0.00 | 0.00 | 0.00 | 65 | 1009.8 |
| 20260504050511 | 37 | 254 | 7.0 | 13.0 | 0.00 | 0.00 | 0.00 | 74 | 1009.8 |
| 20260504045511 | 37 | 259 | 8.0 | 13.0 | 0.00 | 0.00 | 0.00 | 74 | 1009.8 |
| 20260504045011 | 37 | 244 | 7.0 | 13.0 | 0.00 | 0.00 | 0.00 | 74 | 1009.8 |
| 20260504044540 | 37 | 282 | 8.0 | 13.0 | 0.00 | 0.00 | 0.00 | 73 | 1009.8 |
| 20260504044010 | 37 | 273 | 7.0 | 11.0 | 0.00 | 0.00 | 0.00 | 72 | 1009.8 |
| 20260504043511 | 37 | 236 | 6.0 | 13.0 | 0.00 | 0.00 | 0.00 | 71 | 1009.7 |
| 20260504043030 | 38 | 254 | 7.0 | 13.0 | 0.00 | 0.00 | 0.00 | 71 | 1009.8 |
| 20260504042512 | 38 | 275 | 8.0 | 13.0 | 0.00 | 0.00 | 0.00 | 72 | 1009.8 |
| 20260504042011 | 38 | 279 | 8.0 | 12.0 | 0.00 | 0.00 | 0.00 | 72 | 1009.7 |
| 20260504041531 | 38 | 268 | 8.0 | 12.0 | 0.00 | 0.00 | 0.00 | 71 | 1009.6 |
| 20260504041013 | 38 | 257 | 7.0 | 12.0 | 0.00 | 0.00 | 0.00 | 71 | 1009.5 |
| 20260504040514 | 38 | 257 | 8.0 | 12.0 | 0.00 | 0.00 | 0.00 | 71 | 1009.5 |
| 20260504040044 | 39 | 248 | 6.0 | 11.0 | 0.00 | 0.00 | 0.00 | 70 | 1009.5 |
| 20260504035511 | 39 | 281 | 5.0 | 11.0 | 0.00 | 0.00 | 0.00 | 70 | 1009.5 |
| 20260504035012 | 39 | 251 | 5.0 | 13.0 | 0.00 | 0.00 | 0.00 | 70 | 1009.5 |
| 20260504034531 | 39 | 271 | 8.0 | 15.0 | 0.00 | 0.00 | 0.00 | 70 | 1009.4 |
| 20260504034011 | 39 | 277 | 8.0 | 15.0 | 0.00 | 0.00 | 0.00 | 70 | 1009.3 |
| 20260504033512 | 39 | 263 | 8.0 | 15.0 | 0.00 | 0.00 | 0.00 | 70 | 1009.3 |
| 20260504033028 | 39 | 271 | 6.0 | 12.0 | 0.00 | 0.00 | 0.00 | 70 | 1009.2 |
| 20260504032511 | 39 | 278 | 8.0 | 12.0 | 0.00 | 0.00 | 0.00 | 70 | 1009.2 |
| 20260504032016 | 39 | 272 | 8.0 | 13.0 | 0.00 | 0.00 | 0.00 | 70 | 1009.2 |
| 20260504031531 | 39 | 286 | 8.0 | 13.0 | 0.00 | 0.00 | 0.00 | 70 | 1009.2 |
| 20260504031011 | 39 | 271 | 9.0 | 13.0 | 0.00 | 0.00 | 0.00 | 70 | 1009.2 |
| 20260504030511 | 39 | 267 | 8.0 | 15.0 | 0.00 | 0.00 | 0.00 | 70 | 1009.2 |
| 20260504030029 | 39 | 281 | 9.0 | 15.0 | 0.00 | 0.00 | 0.00 | 70 | 1009.3 |
| 20260504025510 | 39 | 288 | 9.0 | 16.0 | 0.00 | 0.00 | 0.00 | 70 | 1009.2 |
| 20260504025013 | 39 | 281 | 11.0 | 17.0 | 0.00 | 0.00 | 0.00 | 70 | 1009.2 |
| 20260504024530 | 39 | 265 | 10.0 | 17.0 | 0.00 | 0.00 | 0.00 | 71 | 1009.1 |
| 20260504024013 | 39 | 282 | 9.0 | 15.0 | 0.00 | 0.00 | 0.00 | 70 | 1009.2 |
| 20260504023514 | 39 | 242 | 9.0 | 15.0 | 0.00 | 0.00 | 0.00 | 71 | 1009.1 |
| 20260504023028 | 39 | 256 | 9.0 | 14.0 | 0.00 | 0.00 | 0.00 | 71 | 1009.1 |
| 20260504022514 | 39 | 267 | 9.0 | 14.0 | 0.00 | 0.00 | 0.00 | 71 | 1009.1 |
| 20260504022012 | 39 | 269 | 9.0 | 14.0 | 0.00 | 0.00 | 0.00 | 71 | 1009.2 |
| 20260504021528 | 39 | 252 | 7.0 | 12.0 | 0.00 | 0.00 | 0.00 | 70 | 1009.2 |
| 20260504021012 | 39 | 276 | 7.0 | 10.0 | 0.00 | 0.00 | 0.00 | 69 | 1009.2 |
| 20260504020511 | 39 | 266 | 6.0 | 10.0 | 0.00 | 0.00 | 0.00 | 69 | 1009.2 |
| 20260504020029 | 40 | 274 | 7.0 | 11.0 | 0.00 | 0.00 | 0.00 | 69 | 1009.2 |
| 20260504015513 | 40 | 265 | 6.0 | 12.0 | 0.00 | 0.01 | 0.00 | 69 | 1009.3 |
| 20260504015013 | 40 | 280 | 5.0 | 12.0 | 0.00 | 0.01 | 0.00 | 68 | 1009.3 |
| 20260504014534 | 40 | 243 | 7.0 | 13.0 | 0.00 | 0.01 | 0.00 | 68 | 1009.2 |
| 20260504014012 | 40 | 287 | 7.0 | 13.0 | 0.00 | 0.01 | 0.00 | 68 | 1009.2 |
| 20260504013511 | 40 | 279 | 7.0 | 11.0 | 0.00 | 0.01 | 0.00 | 67 | 1009.3 |
| 20260504013040 | 40 | 273 | 7.0 | 14.0 | 0.00 | 0.01 | 0.00 | 68 | 1009.3 |
| 20260504012516 | 40 | 271 | 8.0 | 14.0 | 0.00 | 0.01 | 0.00 | 68 | 1009.2 |
| 20260504012013 | 40 | 284 | 6.0 | 13.0 | 0.00 | 0.01 | 0.00 | 67 | 1009.1 |
| 20260504011528 | 41 | 291 | 7.0 | 13.0 | 0.00 | 0.01 | 0.00 | 66 | 1009.1 |
| 20260504011013 | 41 | 281 | 8.0 | 13.0 | 0.00 | 0.01 | 0.00 | 66 | 1009.0 |
| 20260504010516 | 41 | 262 | 6.0 | 16.0 | 0.00 | 0.01 | 0.00 | 66 | 1009.0 |
| 20260504010030 | 41 | 302 | 7.0 | 16.0 | 0.00 | 0.01 | 0.00 | 65 | 1008.9 |
| 20260504005512 | 41 | 315 | 8.0 | 16.0 | 0.00 | 0.04 | 0.00 | 64 | 1008.8 |
| 20260504005013 | 41 | 303 | 8.0 | 17.0 | 0.00 | 0.04 | 0.00 | 65 | 1008.8 |
| 20260504004528 | 41 | 280 | 7.0 | 17.0 | 0.00 | 0.04 | 0.00 | 65 | 1008.7 |
| 20260504004012 | 41 | 282 | 7.0 | 13.0 | 0.00 | 0.04 | 0.00 | 64 | 1008.6 |
| 20260504003513 | 42 | 301 | 7.0 | 12.0 | 0.00 | 0.04 | 0.00 | 64 | 1008.5 |
| 20260504003032 | 42 | 304 | 4.0 | 13.0 | 0.00 | 0.04 | 0.00 | 63 | 1008.5 |
| 20260504002511 | 42 | 294 | 6.0 | 13.0 | 0.00 | 0.04 | 0.00 | 63 | 1008.5 |
| 20260504002010 | 42 | 273 | 7.0 | 15.0 | 0.00 | 0.04 | 0.00 | 62 | 1008.5 |
| 20260504001531 | 42 | 305 | 9.0 | 15.0 | 0.00 | 0.04 | 0.00 | 62 | 1008.4 |
| 20260504001013 | 42 | 284 | 8.0 | 16.0 | 0.00 | 0.04 | 0.00 | 62 | 1008.3 |
| 20260504000514 | 43 | 325 | 9.0 | 16.0 | 0.00 | 0.04 | 0.00 | 62 | 1008.2 |
| 20260504000030 | 43 | 286 | 7.0 | 14.0 | 0.00 | 0.04 | 0.00 | 61 | 1008.1 |
| 20260503235510 | 43 | 298 | 6.0 | 15.0 | 0.00 | 0.06 | 0.00 | 61 | 1008.0 |
| 20260503235013 | 44 | 311 | 7.0 | 17.0 | 0.00 | 0.06 | 0.00 | 58 | 1007.9 |
| 20260503234531 | 44 | 312 | 8.0 | 19.0 | 0.00 | 0.06 | 0.00 | 58 | 1007.9 |
| 20260503234011 | 44 | 315 | 9.0 | 23.0 | 0.00 | 0.06 | 0.00 | 57 | 1007.9 |
| 20260503233511 | 44 | 352 | 7.0 | 23.0 | 0.00 | 0.06 | 0.00 | 58 | 1007.7 |
| 20260503233034 | 45 | 330 | 10.0 | 23.0 | 0.00 | 0.06 | 0.00 | 56 | 1007.7 |
| 20260503232512 | 45 | 342 | 9.0 | 22.0 | 0.00 | 0.06 | 0.00 | 57 | 1007.7 |
| 20260503232012 | 45 | 307 | 12.0 | 22.0 | 0.00 | 0.06 | 0.00 | 56 | 1007.6 |
| 20260503231527 | 45 | 308 | 11.0 | 24.0 | 0.00 | 0.06 | 0.00 | 55 | 1007.5 |
| 20260503231012 | 46 | 323 | 9.0 | 28.0 | 0.00 | 0.06 | 0.00 | 56 | 1007.6 |
| 20260503230513 | 46 | 314 | 16.0 | 28.0 | 0.00 | 0.06 | 0.00 | 54 | 1007.4 |
| 20260503230029 | 46 | 311 | 14.0 | 26.0 | 0.00 | 0.06 | 0.00 | 53 | 1007.3 |